Ana Sayfa
METAR-TAF:

METAR-TAF

Havaalanları :

Strother Field

Winfield / Arkansas City, Kansas, Amerika Birleşik Devletleri

Enlem: 37-10-05N, Boylam: 097-02-13W, yükseklik: 353 m

Güncel hava durumu gözlemi

Rapor saat 23:54 UTC de 25 dakika önce yapıldı.
Rüzgar doğudan 3 kt
Sıcaklık 25°C
Nem 47%
Basınç 1019 hPa
Görüş mesafesi: 16.1 km
Açık gökyüzü

METAR: KWLD 282354Z AUTO 10003KT 10SM CLR 25/13 A3008 RMK AO2 SLP175 T02500128 10272 20222 58017

Saat: 19:19 (00:19 UTC)


TAF: eksik

4.000'den fazla havaalanı için hava durumu gözlemleri ve tahminleri (METAR ve TAF raporları).

Kullanılabilir istasyonlar harita üzerinde sarı ve kırmızı noktalarla gösterilir.

İstasyonun adını görmek için fareyi noktanın üzerinde gezdirin.

Sonrasında hava gözlem ve tahminlerini görmek için tıklayın.

Haritayı değiştirmek için: yaklaştırmak için siyah artı işaretli yeşil düğmeye ve uzaklaştırmak için de eksi işaretli düğmeye hızla tıklayın; bitişik haritalar için yeşil okları kullanın.


METAR-TAF: